[[{"header":{"parameterUnit":"m.s-1","parameterCategory":2,"la1":30.2991,"la2":30.254,"lo1":-89.0895,"lo2":-89.0444,"dy":0.0017,"dx":0.0017,"nx":28,"ny":28,"refTime":"2025-01-14T09:00:00:Z","depth":"0","parameterNumber":2,"parameterNumberName":"U-component_of_CURRENTS"},"data":[0,0,0,0,0,0,0,0,0,0,0,0,0,0,0,0,0,0,0,0,0,0,0,0,0,0,0,0,0,0,0,0,0,0,0,0,0,0,0,0,0,0,0,0,0,0,0,0,0,0,0,0,0,0,0,0,0,0,0.238,0.238,0,0.2351,0.235,0.235,0.2333,0.2333,0.2334,0.2334,0.2303,0.2302,0.2301,0,0,0,0,0,0,0,0,0,0,0,0,0,0.2415,0.2414,0.238,0.238,0.238,0.2351,0.235,0.235,0.2333,0.2333,0.2334,0.2334,0.2304,0.2302,0.2301,0,0,0,0,0,0,0,0,0,0,0,0,0,0.2392,0.2414,0.238,0.237,0.2369,0.2351,0.235,0.2349,0.2333,0.2333,0.2334,0.2334,0.2304,0.2303,0.2301,0.2288,0,0,0.2297,0.2296,0,0,0,0,0,0,0,0,0.2393,0.2391,0.2371,0.237,0.2369,0.2348,0.2351,0.233,0.2333,0.2344,0.2334,0.2334,0.2319,0.2317,0.2308,0.2287,0.2285,0.2297,0.2296,0.2295,0.2295,0,0,0,0,0,0,0,0.2395,0.2392,0.2366,0.2371,0.237,0.2364,0.2361,0.2347,0.2329,0.2344,0.2343,0.2343,0.2318,0.2309,0.2307,0.2285,0.2297,0.2295,0.2295,0.2294,0.2257,0.2257,0,0,0,0,0,0,0.2403,0.2393,0.2367,0.2366,0.2384,0.2364,0.236,0.2353,0.233,0.2327,0.2343,0.2342,0.2311,0.2308,0.2306,0.2293,0.2295,0.2294,0.2293,0.2257,0.2257,0.2257,0,0,0,0,0,0,0.2404,0.2401,0.2369,0.2381,0.2377,0.2363,0.2355,0.2352,0.2343,0.2329,0.2326,0.2337,0.2311,0.2308,0.2286,0.2291,0.2293,0.2292,0.2257,0.2257,0.2257,0.2264,0,0,0,0,0,0,0.2405,0.2401,0.2398,0.2381,0.2376,0.2357,0.2355,0.2351,0.2344,0.2343,0.2324,0.2321,0.2311,0.2289,0.2285,0.2289,0.2291,0.2257,0.2257,0.2257,0.2264,0.2264,0.2264,0,0,0,0,0,0.2406,0.2395,0.2397,0.2394,0.2372,0.2357,0.2354,0.2344,0.2344,0.2337,0.2321,0.2322,0.2285,0.2287,0.2283,0.2287,0.2258,0.2257,0.2257,0.2264,0.2264,0.2264,0,0,0,0,0,0,0.2398,0.2392,0.2394,0.238,0.2372,0.2355,0.2348,0.2344,0.2326,0.2325,0.2312,0.2307,0.2298,0.2286,0.2289,0.2276,0.2275,0.2274,0.2282,0.2282,0.2282,0.2305,0.229,0,0,0,0,0,0.2399,0.2394,0.2386,0.2375,0.2373,0.2363,0.2356,0.2351,0.2335,0.2327,0.2313,0.23,0.2293,0.2282,0.2274,0.2256,0.2267,0.2259,0.2259,0.2259,0.2275,0.2293,0.2297,0.2256,0.2256,0.2256,0,0,0.2391,0.239,0.2385,0.2375,0.2368,0.2361,0.2358,0.2348,0.2342,0.2327,0.2308,0.2302,0.2291,0.2278,0.2272,0.2266,0.2273,0.2259,0.2259,0.2275,0.2293,0.2298,0.2301,0.2255,0.2256,0.2256,0,0,0.2375,0.2375,0.2367,0.2365,0.2362,0.2358,0.2357,0.2342,0.2336,0.2317,0.2315,0.231,0.2282,0.2282,0.2277,0.2272,0.228,0.2267,0.2278,0.2294,0.2299,0.2302,0.2308,0.2313,0.2259,0.2259,0.2259,0,0.2368,0.2356,0.2361,0.2357,0.2354,0.2359,0.2348,0.2345,0.2324,0.2324,0.2312,0.2301,0.2289,0.2292,0.2289,0.2275,0.2282,0.2277,0.2296,0.23,0.2304,0.231,0.2314,0.2259,0.2259,0.2259,0.2259,0,0.2345,0.2342,0.2337,0.2338,0.2336,0.2327,0.2331,0.2329,0.2324,0.2324,0.2326,0.231,0.2309,0.2301,0.229,0.2312,0.2307,0.2302,0.2299,0.2309,0.2313,0.2318,0.226,0.226,0.2259,0.2259,0,0,0.2308,0.2319,0.2317,0.2317,0.2326,0.2317,0.2323,0.2326,0.2338,0.2326,0.2337,0.2327,0.2337,0.2334,0.2327,0.2335,0.2357,0.2328,0.2328,0.234,0.239,0.2342,0.2342,0.2355,0.2357,0.2358,0.2378,0,0.2286,0.2276,0.2289,0.2279,0.2271,0.2292,0.2297,0.2309,0.2322,0.2336,0.2345,0.2353,0.2344,0.2346,0.2357,0.2366,0.2372,0.2352,0.2374,0.2375,0.2336,0.2347,0.2222,0.2226,0.2382,0.2383,0.2384,0,0.2251,0.2252,0.2237,0.2252,0.2251,0.2252,0.2273,0.2283,0.2325,0.2339,0.2368,0.238,0.2404,0.2388,0.2419,0.2407,0.2404,0.2404,0.2404,0.2366,0.2336,0.2244,0.2229,0.2159,0.2391,0.2391,0.239,0,0.2207,0.2213,0.22,0.2202,0.2221,0.2224,0.224,0.228,0.2302,0.2354,0.2374,0.2411,0.2426,0.2442,0.2449,0.2436,0.2479,0.2458,0.2412,0.2408,0.2311,0.2296,0.2238,0.2481,0.2481,0.248,0.248,0,0.2168,0.2157,0.218,0.217,0.2168,0.2195,0.221,0.2243,0.2299,0.2325,0.2376,0.2402,0.2441,0.2467,0.2468,0.2461,0.2496,0.2425,0.2415,0.2306,0.2292,0.2234,0.2204,0.2481,0.2481,0.2481,0.2481,0,0.2114,0.2128,0.2117,0.2136,0.2144,0.2143,0.2193,0.2211,0.2273,0.2311,0.2327,0.2405,0.2438,0.2468,0.2498,0.2475,0.2388,0.2462,0.2329,0.2303,0.2174,0.2148,0.2031,0.1952,0.2407,0.2406,0.2405,0,0.208,0.207,0.2087,0.2084,0.2091,0.2105,0.2119,0.2188,0.2216,0.2301,0.2312,0.2373,0.2396,0.2438,0.2421,0.2417,0.2343,0.2288,0.2239,0.2157,0.2122,0.2049,0.1986,0.2107,0.2104,0.2101,0.2099,0,0.2024,0.2036,0.2034,0.2029,0.2034,0.2043,0.207,0.2094,0.2167,0.2197,0.2247,0.2277,0.2327,0.2278,0.2285,0.2264,0.2144,0.2233,0.2181,0.1913,0.1797,0.1718,0.2105,0.2075,0.2078,0.2079,0.2081,0.2082,0.1989,0.1976,0.1977,0.1966,0.1972,0.1964,0.1945,0.1983,0.2005,0.2024,0.2124,0.2124,0.2124,0.2119,0.2096,0.1968,0.1984,0.1873,0.1859,0.1802,0.1686,0.2022,0.1963,0.1964,0.1966,0.1967,0.1968,0,0.1932,0.1923,0.1913,0.1887,0.1857,0.1884,0.1892,0.1859,0.1838,0.1894,0.1911,0.1878,0.1818,0.1816,0.1707,0.1603,0.1528,0.1544,0.1409,0.1373,0.1698,0.1645,0.1473,0.1474,0.1474,0.1474,0.1474,0.1474,0.1903,0.1865,0.1854,0.1775,0.1754,0.1681,0.1666,0.1635,0.1653,0.1608,0.1584,0.1603,0.1604,0.1497,0.1359,0.1314,0.1194,0.1122,0.1141,0.1373,0.1402,0.1431,0.1374,0.1149,0.1148,0.0734,0.073,0.0728]},{"header":{"parameterUnit":"m.s-1","parameterCategory":2,"la1":30.2991,"la2":30.254,"lo1":-89.0895,"lo2":-89.0444,"dy":0.0017,"dx":0.0017,"nx":28,"ny":28,"refTime":"2025-01-14T09:00:00:Z","depth":"0","parameterNumber":3,"parameterNumberName":"V-component_of_CURRENTS"},"data":[0,0,0,0,0,0,0,0,0,0,0,0,0,0,0,0,0,0,0,0,0,0,0,0,0,0,0,0,0,0,0,0,0,0,0,0,0,0,0,0,0,0,0,0,0,0,0,0,0,0,0,0,0,0,0,0,0,0,-0.0111,-0.0111,0,-0.0136,-0.0137,-0.0137,-0.017,-0.017,-0.0171,-0.0171,-0.0233,-0.0235,-0.0236,0,0,0,0,0,0,0,0,0,0,0,0,0,-0.0089,-0.0089,-0.0111,-0.0111,-0.0112,-0.0136,-0.0137,-0.0137,-0.017,-0.017,-0.0171,-0.0171,-0.0233,-0.0234,-0.0236,0,0,0,0,0,0,0,0,0,0,0,0,0,-0.0105,-0.0089,-0.0111,-0.013,-0.0132,-0.0136,-0.0137,-0.0137,-0.017,-0.017,-0.0171,-0.0172,-0.0232,-0.0234,-0.0236,-0.0233,0,0,-0.0242,-0.0242,0,0,0,0,0,0,0,0,-0.0104,-0.0106,-0.0127,-0.0129,-0.0131,-0.015,-0.0152,-0.0171,-0.0169,-0.0156,-0.0171,-0.0172,-0.0208,-0.0212,-0.0216,-0.0236,-0.0239,-0.0242,-0.0243,-0.0244,-0.0244,0,0,0,0,0,0,0,-0.0103,-0.0105,-0.0122,-0.0127,-0.013,-0.0137,-0.014,-0.0155,-0.0179,-0.0157,-0.016,-0.0161,-0.0209,-0.0214,-0.0217,-0.024,-0.0242,-0.0243,-0.0245,-0.0245,-0.0258,-0.0258,0,0,0,0,0,0,-0.0098,-0.0104,-0.0121,-0.0123,-0.0118,-0.0137,-0.014,-0.0144,-0.0178,-0.0184,-0.016,-0.0162,-0.021,-0.0215,-0.022,-0.0211,-0.0244,-0.0245,-0.0247,-0.0259,-0.0258,-0.0257,0,0,0,0,0,0,-0.0097,-0.0099,-0.012,-0.0113,-0.0116,-0.0136,-0.014,-0.0144,-0.0146,-0.018,-0.0186,-0.0158,-0.0211,-0.0217,-0.0228,-0.0214,-0.0246,-0.0248,-0.026,-0.0259,-0.0258,-0.0198,0,0,0,0,0,0,-0.0097,-0.0099,-0.0097,-0.0113,-0.0116,-0.0116,-0.0139,-0.0144,-0.0146,-0.0149,-0.018,-0.0187,-0.0212,-0.0225,-0.023,-0.0217,-0.0249,-0.0261,-0.026,-0.0258,-0.0201,-0.0195,-0.019,0,0,0,0,0,-0.0096,-0.0088,-0.0096,-0.0098,-0.0114,-0.0116,-0.0118,-0.0135,-0.0145,-0.0141,-0.0162,-0.0186,-0.0219,-0.0225,-0.0231,-0.0219,-0.0262,-0.026,-0.0258,-0.0204,-0.0196,-0.019,0,0,0,0,0,0,-0.0074,-0.0091,-0.0101,-0.0098,-0.0104,-0.0121,-0.0116,-0.0128,-0.014,-0.0144,-0.0177,-0.0185,-0.019,-0.021,-0.0216,-0.0218,-0.0244,-0.0243,-0.02,-0.0194,-0.0188,-0.0177,-0.0251,0,0,0,0,0,-0.0068,-0.007,-0.0084,-0.0081,-0.0081,-0.0097,-0.0099,-0.011,-0.0124,-0.013,-0.0153,-0.0174,-0.0186,-0.0195,-0.0212,-0.0212,-0.0229,-0.0207,-0.0202,-0.0197,-0.0192,-0.0197,-0.0192,-0.0252,-0.0252,-0.0252,0,0,-0.0057,-0.0067,-0.0067,-0.0076,-0.0082,-0.0075,-0.01,-0.0098,-0.0092,-0.0134,-0.0135,-0.0156,-0.0182,-0.0183,-0.0187,-0.0199,-0.0189,-0.0195,-0.0191,-0.0188,-0.0195,-0.0189,-0.0184,-0.0251,-0.0251,-0.0251,0,0,-0.0034,-0.0045,-0.0037,-0.004,-0.0046,-0.0054,-0.005,-0.0064,-0.0071,-0.0074,-0.01,-0.0109,-0.0135,-0.0146,-0.0155,-0.0128,-0.016,-0.0135,-0.0098,-0.0103,-0.0098,-0.0094,-0.0108,-0.0106,-0.0131,-0.0131,-0.0131,0,-0.0018,-0.0013,-0.0033,-0.0025,-0.002,-0.0041,-0.0024,-0.0031,-0.0047,-0.0044,-0.0068,-0.0089,-0.0115,-0.0105,-0.01,-0.0114,-0.0127,-0.0121,-0.0096,-0.0092,-0.0089,-0.0104,-0.0102,-0.0128,-0.0128,-0.0129,-0.0129,0,0.0009,0.0016,0.0023,0.0025,0.0027,0.004,0.0029,0.0028,0.0015,0.001,0.001,-0.0024,-0.0036,-0.0044,-0.0068,-0.0052,-0.0072,-0.0088,-0.0111,-0.0079,-0.0097,-0.0096,-0.0124,-0.0125,-0.0126,-0.0126,0,0,0.0045,0.0043,0.0048,0.0058,0.0056,0.0064,0.0074,0.0085,0.0104,0.0077,0.0096,0.0068,0.0049,0.0037,0.0009,0.0002,0.0007,-0.0032,-0.0033,-0.0043,-0.001,-0.0016,-0.0016,-0.0005,-0.0004,-0.0004,-0.0032,0,0.0079,0.0103,0.0093,0.0127,0.0143,0.0128,0.0143,0.0147,0.0146,0.0157,0.0126,0.0129,0.0081,0.0076,0.0062,0.0024,0.0013,0.0016,-0.0042,-0.0044,-0.0051,-0.0014,0.0022,0.0001,-0.0031,-0.0031,-0.0031,0,0.0115,0.0126,0.0159,0.018,0.0187,0.02,0.0228,0.024,0.0248,0.0247,0.0241,0.0212,0.0196,0.0148,0.0099,0.0103,0.0051,0.0016,0.0014,-0.0011,-0.0047,-0.0037,0.0004,-0.0066,-0.003,-0.003,-0.003,0,0.0156,0.0179,0.0207,0.0214,0.0228,0.024,0.0253,0.0269,0.03,0.0306,0.0322,0.0292,0.028,0.0218,0.0132,0.0117,0.0077,0.0046,-0.0009,-0.0011,-0.0001,-0.0002,-0.0032,0.0012,0.0012,0.0012,0.0012,0,0.0199,0.0225,0.0227,0.0243,0.0285,0.028,0.0334,0.034,0.0371,0.042,0.0371,0.0397,0.0297,0.0255,0.0166,0.0088,0.0101,0.0007,-0.0011,0.002,0.0021,-0.0058,-0.0115,0.0011,0.0011,0.0012,0.0012,0,0.024,0.0241,0.0276,0.0293,0.0304,0.0335,0.0385,0.043,0.0443,0.0501,0.0502,0.0484,0.0432,0.0326,0.0231,0.0142,0.0019,0.0024,0.0063,0.005,-0.0068,-0.0123,-0.018,-0.0234,-0.0035,-0.0035,-0.0035,0,0.0262,0.0282,0.0314,0.0342,0.0351,0.0396,0.0435,0.0464,0.052,0.0561,0.0597,0.0562,0.0559,0.0417,0.0267,0.0122,0.0024,0.0038,0.0015,-0.0058,-0.0133,-0.0166,-0.021,0.0047,0.0048,0.0048,0.0049,0,0.0305,0.0313,0.034,0.0394,0.0436,0.0492,0.0549,0.0603,0.0643,0.0691,0.0749,0.0748,0.0623,0.0509,0.0302,0.0197,-0.0005,0.0042,-0.0036,-0.0068,-0.0103,-0.0168,0.0036,0.0052,0.0052,0.0052,0.0051,0.0051,0.0339,0.0364,0.0398,0.0451,0.0504,0.0574,0.0627,0.0699,0.0785,0.0851,0.0859,0.0873,0.0705,0.0448,0.03,0.005,0.0014,-0.0034,-0.0095,-0.012,-0.0168,0.004,0.0035,0.0035,0.0034,0.0034,0.0034,0,0.0377,0.0403,0.0454,0.0514,0.0575,0.0595,0.0693,0.0748,0.0847,0.0916,0.0963,0.0893,0.0703,0.0467,0.0143,-0.0044,-0.0122,-0.0158,-0.0191,-0.0234,-0.0038,-0.0029,-0.0045,-0.0044,-0.0044,-0.0044,-0.0044,-0.0044,0.0398,0.0445,0.0464,0.0556,0.0602,0.0676,0.073,0.0815,0.0884,0.0946,0.0954,0.0938,0.0754,0.0292,-0.0059,-0.0161,-0.0324,-0.0342,-0.0453,-0.0309,-0.0302,-0.0295,-0.0298,-0.037,-0.037,-0.0601,-0.0604,-0.0605]}],[{"header":{"parameterUnit":"m.s-1","parameterCategory":2,"la1":30.2991,"la2":30.254,"lo1":-89.0895,"lo2":-89.0444,"dy":0.0017,"dx":0.0017,"nx":28,"ny":28,"refTime":"2025-01-14T09:00:00:Z","depth":"2","parameterNumber":2,"parameterNumberName":"U-component_of_CURRENTS"},"data":[0,0,0,0,0,0,0,0,0,0,0,0,0,0,0,0,0,0,0,0,0,0,0,0,0,0,0,0,0,0,0,0,0,0,0,0,0,0,0,0,0,0,0,0,0,0,0,0,0,0,0,0,0,0,0,0,0,0,0.2146,0.2146,0,0.2157,0.2158,0.2158,0.2158,0.2158,0.2157,0.2157,0.2141,0.2141,0.2141,0,0,0,0,0,0,0,0,0,0,0,0,0,0.2156,0.2156,0.2146,0.2146,0.2146,0.2157,0.2158,0.2158,0.2158,0.2158,0.2157,0.2157,0.2141,0.2141,0.2141,0,0,0,0,0,0,0,0,0,0,0,0,0,0.2161,0.2156,0.2146,0.2145,0.2144,0.2157,0.2158,0.2159,0.2158,0.2158,0.2157,0.2156,0.2141,0.2141,0.2141,0.2156,0,0,0.2142,0.2142,0,0,0,0,0,0,0,0,0.2161,0.2161,0.2145,0.2145,0.2144,0.2153,0.2155,0.2155,0.2159,0.2157,0.2157,0.2156,0.2141,0.2141,0.215,0.2155,0.2154,0.2142,0.2142,0.2142,0.2142,0,0,0,0,0,0,0,0.2161,0.2161,0.2154,0.2145,0.2145,0.2154,0.2154,0.2156,0.2155,0.2157,0.2156,0.2152,0.2141,0.215,0.2149,0.2154,0.2142,0.2142,0.2142,0.2142,0.2159,0.2159,0,0,0,0,0,0,0.2151,0.2161,0.2154,0.2154,0.2147,0.2154,0.2154,0.2154,0.2155,0.2154,0.2153,0.2152,0.215,0.2149,0.2149,0.2156,0.2142,0.2142,0.2142,0.2158,0.2159,0.2159,0,0,0,0,0,0,0.2152,0.2151,0.2153,0.2155,0.2155,0.2154,0.2154,0.2154,0.2169,0.2152,0.2151,0.2167,0.215,0.2149,0.2142,0.2155,0.2142,0.2142,0.2158,0.2159,0.2159,0.2175,0,0,0,0,0,0,0.2152,0.2151,0.2158,0.2154,0.2155,0.2156,0.2154,0.2155,0.2166,0.2165,0.2164,0.2161,0.2149,0.2142,0.2142,0.2155,0.2142,0.2157,0.2158,0.2159,0.2174,0.2176,0.2178,0,0,0,0,0,0.2152,0.2154,0.2159,0.2158,0.2161,0.2156,0.2158,0.2157,0.2167,0.217,0.2165,0.2162,0.2148,0.2142,0.2142,0.2155,0.2157,0.2158,0.2159,0.2173,0.2176,0.2178,0,0,0,0,0,0,0.2156,0.2154,0.2159,0.2159,0.2158,0.2154,0.2163,0.2166,0.217,0.2172,0.2163,0.2159,0.2164,0.2157,0.2151,0.2163,0.2154,0.2155,0.2165,0.2168,0.217,0.2182,0.2142,0,0,0,0,0,0.2162,0.2165,0.2162,0.2162,0.2168,0.2174,0.2177,0.2173,0.217,0.2172,0.217,0.2169,0.217,0.2164,0.2165,0.2167,0.2173,0.2177,0.2179,0.2181,0.2191,0.221,0.2215,0.2163,0.2163,0.2163,0,0,0.2163,0.2162,0.2164,0.2164,0.2172,0.2176,0.2175,0.2178,0.2179,0.2169,0.2179,0.218,0.2174,0.2175,0.2177,0.2168,0.2197,0.2182,0.2184,0.2193,0.2212,0.2217,0.2221,0.2163,0.2163,0.2163,0,0,0.2157,0.217,0.2172,0.2176,0.2179,0.2182,0.2185,0.2189,0.2194,0.2194,0.2194,0.22,0.2197,0.2195,0.2194,0.221,0.2213,0.2213,0.2226,0.2244,0.2249,0.2253,0.2258,0.2263,0.2207,0.2207,0.2207,0,0.2164,0.216,0.2171,0.2175,0.2177,0.2187,0.2189,0.2198,0.2194,0.2202,0.2195,0.2215,0.2208,0.222,0.2221,0.2216,0.2223,0.2215,0.2248,0.2252,0.2256,0.226,0.2265,0.2208,0.2208,0.2208,0.2208,0,0.2153,0.216,0.2164,0.2175,0.2181,0.2182,0.2191,0.2202,0.2212,0.2219,0.2238,0.2233,0.2244,0.2244,0.2235,0.2264,0.2258,0.2253,0.2242,0.2262,0.2265,0.227,0.2209,0.2209,0.2209,0.2208,0,0,0.2141,0.2156,0.2158,0.2163,0.218,0.2178,0.2197,0.221,0.2231,0.2236,0.226,0.2265,0.2279,0.228,0.2278,0.2289,0.2316,0.2283,0.2283,0.2289,0.2351,0.2298,0.2297,0.2318,0.2319,0.232,0.2339,0,0.2133,0.2134,0.2145,0.215,0.2154,0.2177,0.2192,0.2208,0.223,0.2258,0.2271,0.2294,0.2288,0.2298,0.2311,0.2322,0.2331,0.2311,0.233,0.2331,0.2282,0.2302,0.2093,0.2088,0.2343,0.2344,0.2345,0,0.2114,0.2117,0.212,0.2137,0.2145,0.2153,0.2187,0.2203,0.2251,0.2272,0.2307,0.2323,0.2353,0.234,0.2374,0.2363,0.2363,0.2363,0.2364,0.2315,0.2287,0.211,0.2087,0.2352,0.2352,0.2351,0.2351,0,0.2081,0.2098,0.2097,0.2103,0.2128,0.214,0.2162,0.2208,0.2234,0.2293,0.2317,0.2358,0.238,0.2396,0.2404,0.2394,0.2435,0.2418,0.2367,0.2362,0.2189,0.2167,0.244,0.244,0.244,0.244,0.244,0,0.2057,0.2057,0.2085,0.2083,0.2093,0.2123,0.2151,0.2187,0.2246,0.2274,0.2327,0.2352,0.2397,0.2421,0.2422,0.2413,0.2452,0.2378,0.2368,0.2187,0.2166,0.24,0.2396,0.244,0.244,0.244,0.244,0,0.2016,0.2035,0.2036,0.2064,0.2076,0.2086,0.2142,0.2165,0.223,0.227,0.2289,0.2361,0.2393,0.2423,0.2452,0.2427,0.2427,0.241,0.2192,0.2157,0.2335,0.2331,0.2353,0.2352,0.235,0.2349,0.2348,0,0.1993,0.199,0.2017,0.202,0.2034,0.2061,0.2079,0.215,0.2177,0.226,0.2269,0.233,0.2344,0.2379,0.2351,0.2341,0.2401,0.2139,0.2081,0.234,0.2329,0.2327,0.2324,0.185,0.1845,0.1841,0.1838,0,0.1951,0.1967,0.1972,0.1976,0.199,0.2004,0.2037,0.2057,0.213,0.2158,0.2196,0.2219,0.2253,0.2149,0.2149,0.2118,0.2126,0.2057,0.2382,0.1913,0.1869,0.1857,0.1871,0.1802,0.1805,0.1808,0.181,0.1811,0.1927,0.1919,0.1927,0.1925,0.1937,0.1929,0.1915,0.1946,0.1964,0.1967,0.2056,0.2011,0.2013,0.1909,0.1838,0.1783,0.1944,0.1833,0.1844,0.1859,0.1806,0.1763,0.1665,0.1668,0.167,0.1672,0.1674,0,0.188,0.1875,0.1871,0.1855,0.1829,0.1861,0.1864,0.1822,0.1791,0.1808,0.1807,0.1632,0.1543,0.1554,0.141,0.1405,0.1377,0.1339,0.1274,0.1311,0.1344,0.1263,0.0979,0.0977,0.0975,0.0973,0,0,0.1856,0.1826,0.1814,0.1746,0.1733,0.1664,0.1646,0.1593,0.1574,0.1495,0.1436,0.15,0.1524,0.1242,0.119,0.1059,0.1183,0.1014,0.1572,0.1535,0.1566,0.1631,0.155,0,0,0,0,0]},{"header":{"parameterUnit":"m.s-1","parameterCategory":2,"la1":30.2991,"la2":30.254,"lo1":-89.0895,"lo2":-89.0444,"dy":0.0017,"dx":0.0017,"nx":28,"ny":28,"refTime":"2025-01-14T09:00:00:Z","depth":"2","parameterNumber":3,"parameterNumberName":"V-component_of_CURRENTS"},"data":[0,0,0,0,0,0,0,0,0,0,0,0,0,0,0,0,0,0,0,0,0,0,0,0,0,0,0,0,0,0,0,0,0,0,0,0,0,0,0,0,0,0,0,0,0,0,0,0,0,0,0,0,0,0,0,0,0,0,0.02,0.02,0,0.0162,0.0161,0.016,0.0138,0.0138,0.0138,0.0138,0.0101,0.01,0.0098,0,0,0,0,0,0,0,0,0,0,0,0,0,0.0212,0.0211,0.02,0.02,0.02,0.0162,0.0161,0.016,0.0138,0.0138,0.0138,0.0138,0.0101,0.01,0.0098,0,0,0,0,0,0,0,0,0,0,0,0,0,0.019,0.0211,0.02,0.0186,0.0185,0.0162,0.0161,0.016,0.0138,0.0138,0.0138,0.0139,0.0102,0.01,0.0098,0.0081,0,0,0.0093,0.0092,0,0,0,0,0,0,0,0,0.0191,0.0189,0.0188,0.0187,0.0186,0.0158,0.0151,0.0134,0.0137,0.0152,0.0138,0.0139,0.0122,0.0118,0.0106,0.0079,0.0077,0.0093,0.0091,0.0091,0.009,0,0,0,0,0,0,0,0.0193,0.0191,0.0181,0.0188,0.0187,0.0168,0.0165,0.0148,0.0133,0.0151,0.015,0.0151,0.0121,0.0107,0.0105,0.0077,0.0093,0.0091,0.009,0.0089,0.0053,0.0053,0,0,0,0,0,0,0.0206,0.0192,0.0183,0.018,0.0193,0.0168,0.0165,0.0164,0.0133,0.013,0.0151,0.015,0.011,0.0107,0.0103,0.0102,0.0091,0.0089,0.0088,0.0053,0.0053,0.0053,0,0,0,0,0,0,0.0207,0.0206,0.0184,0.0188,0.0185,0.0168,0.0166,0.0163,0.0149,0.0134,0.013,0.0141,0.011,0.0106,0.0098,0.01,0.0088,0.0087,0.0053,0.0053,0.0053,0.0086,0,0,0,0,0,0,0.0207,0.0206,0.0203,0.0189,0.0185,0.0179,0.0166,0.0162,0.0151,0.0149,0.0124,0.0121,0.011,0.0101,0.0096,0.0097,0.0085,0.0053,0.0053,0.0053,0.0085,0.0087,0.0089,0,0,0,0,0,0.0207,0.0208,0.0203,0.0202,0.0184,0.0179,0.0175,0.0162,0.015,0.0148,0.0135,0.0122,0.0099,0.0099,0.0094,0.0094,0.0052,0.0053,0.0053,0.0084,0.0087,0.0089,0,0,0,0,0,0,0.0211,0.0206,0.02,0.0198,0.0193,0.0177,0.017,0.016,0.0144,0.0142,0.0123,0.0119,0.0113,0.0098,0.0099,0.0085,0.0073,0.0072,0.0098,0.0101,0.0103,0.0115,0.0084,0,0,0,0,0,0.0211,0.0212,0.0204,0.0204,0.0199,0.0181,0.0174,0.0169,0.0158,0.015,0.0132,0.0116,0.0108,0.0101,0.0089,0.0079,0.0067,0.0075,0.0078,0.008,0.0086,0.0075,0.0078,0.0054,0.0054,0.0054,0,0,0.0213,0.0211,0.021,0.0205,0.0194,0.0195,0.0177,0.0172,0.0175,0.0149,0.0138,0.0122,0.0107,0.0102,0.0097,0.009,0.0078,0.008,0.0082,0.0087,0.0076,0.0078,0.008,0.0054,0.0054,0.0054,0,0,0.0223,0.0213,0.0217,0.0214,0.0209,0.0202,0.0203,0.0185,0.0177,0.0169,0.0154,0.0144,0.0119,0.0115,0.0109,0.0115,0.0092,0.0105,0.0126,0.0115,0.0117,0.0119,0.0101,0.0101,0.0105,0.0106,0.0106,0,0.0223,0.0232,0.0218,0.0223,0.0226,0.0208,0.0217,0.0206,0.019,0.0191,0.0173,0.0147,0.0129,0.0135,0.0135,0.0121,0.0107,0.0118,0.0119,0.012,0.0122,0.0103,0.0102,0.0107,0.0107,0.0107,0.0107,0,0.024,0.0245,0.0247,0.0251,0.025,0.0256,0.0247,0.024,0.0225,0.022,0.0213,0.0186,0.0174,0.0163,0.0148,0.0149,0.0133,0.0125,0.0114,0.0126,0.0105,0.0104,0.0109,0.0109,0.0108,0.0108,0,0,0.0251,0.0257,0.0259,0.0269,0.0267,0.0272,0.0275,0.0281,0.0293,0.0264,0.0273,0.0245,0.0227,0.022,0.0196,0.0182,0.0169,0.0155,0.0154,0.0142,0.0139,0.0131,0.0129,0.0159,0.0159,0.0159,0.0119,0,0.027,0.0291,0.0289,0.0312,0.0322,0.0312,0.0322,0.0325,0.0321,0.0324,0.0294,0.0293,0.0251,0.0244,0.0224,0.019,0.0168,0.0181,0.0126,0.0124,0.012,0.0128,0.0156,0.0122,0.0117,0.0117,0.0117,0,0.0292,0.0305,0.0328,0.0351,0.0354,0.0364,0.0384,0.0395,0.0398,0.0394,0.0382,0.0357,0.0333,0.0292,0.0236,0.0244,0.0192,0.0158,0.0156,0.0139,0.0115,0.011,0.012,0.0115,0.0115,0.0115,0.0115,0,0.0316,0.0337,0.0359,0.0364,0.0381,0.0389,0.0401,0.0415,0.0441,0.0439,0.0451,0.0416,0.0401,0.0336,0.0254,0.0244,0.019,0.0168,0.0112,0.011,0.0118,0.0118,0.0124,0.0124,0.0124,0.0124,0.0125,0,0.0344,0.0363,0.037,0.0382,0.0417,0.0417,0.0462,0.0468,0.0495,0.0536,0.0489,0.0507,0.0411,0.0364,0.0278,0.0196,0.0206,0.0119,0.0103,0.0129,0.013,0.0112,0.0112,0.0123,0.0123,0.0124,0.0124,0,0.0368,0.0372,0.0401,0.042,0.0429,0.0455,0.0505,0.0544,0.0555,0.0604,0.0602,0.058,0.0523,0.042,0.0322,0.0239,0.0153,0.0117,0.0149,0.0138,0.0071,0.0072,0.0052,0.0052,0.0051,0.0051,0.005,0,0.0382,0.0398,0.0429,0.0454,0.0463,0.0503,0.0541,0.0571,0.0621,0.0654,0.0684,0.0642,0.063,0.0483,0.0338,0.0193,0.0161,0.0107,0.0093,0.0079,0.0065,0.0067,0.0069,0.011,0.011,0.0111,0.0111,0,0.0413,0.042,0.0445,0.0494,0.0532,0.0586,0.064,0.0688,0.0729,0.0767,0.081,0.08,0.0671,0.0546,0.0345,0.0248,0.0133,0.0106,0.0093,0.0126,0.0131,0.0118,0.0119,0.0112,0.0112,0.0112,0.0112,0.0112,0.0436,0.0459,0.049,0.0538,0.0588,0.0655,0.0704,0.077,0.0846,0.0892,0.0895,0.087,0.0736,0.0487,0.0331,0.0152,0.0156,0.008,0.0081,0.0081,0.0097,0.0102,0.0079,0.0079,0.0079,0.0078,0.0078,0,0.0464,0.0487,0.0534,0.059,0.0647,0.0668,0.0761,0.0807,0.089,0.0926,0.0954,0.0816,0.069,0.0515,0.0263,0.0119,0.0111,0.0063,0.0086,0.0086,0.0086,0.0103,0.0086,0.0085,0.0085,0.0084,0,0,0.0479,0.052,0.0539,0.0621,0.0665,0.0735,0.0785,0.0854,0.0896,0.0926,0.0909,0.09,0.0717,0.0531,0.0355,0.021,0.0173,0.0182,0.0194,0.0244,0.0245,0.012,0.0149,0,0,0,0,0]}],[{"header":{"parameterUnit":"m.s-1","parameterCategory":2,"la1":30.2991,"la2":30.254,"lo1":-89.0895,"lo2":-89.0444,"dy":0.0017,"dx":0.0017,"nx":28,"ny":28,"refTime":"2025-01-14T09:00:00:Z","depth":"4","parameterNumber":2,"parameterNumberName":"U-component_of_CURRENTS"},"data":[0,0,0,0,0,0,0,0,0,0,0,0,0,0,0,0,0,0,0,0,0,0,0,0,0,0,0,0,0,0,0,0,0,0,0,0,0,0,0,0,0,0,0,0,0,0,0,0,0,0,0,0,0,0,0,0,0,0,0.1265,0.1265,0,0.1305,0.1305,0.1306,0.1336,0.1337,0.1338,0.1338,0.1386,0.1387,0.1387,0,0,0,0,0,0,0,0,0,0,0,0,0,0.123,0.123,0.1265,0.1266,0.1266,0.1305,0.1305,0.1306,0.1336,0.1337,0.1338,0.1339,0.1386,0.1387,0.1387,0,0,0,0,0,0,0,0,0,0,0,0,0,0.1252,0.123,0.1265,0.1289,0.1292,0.1305,0.1305,0.1306,0.1336,0.1337,0.1338,0.1339,0.1385,0.1386,0.1388,0.1376,0,0,0.1391,0.1391,0,0,0,0,0,0,0,0,0.1251,0.1253,0.1284,0.1287,0.1291,0.132,0.1311,0.1331,0.1336,0.1316,0.1338,0.1339,0.1366,0.1369,0.1369,0.1378,0.138,0.1391,0.1392,0.1392,0.1392,0,0,0,0,0,0,0,0.1249,0.1251,0.1277,0.1285,0.1289,0.1304,0.1307,0.1315,0.1333,0.1318,0.1321,0.133,0.1367,0.1368,0.1371,0.1381,0.1391,0.1392,0.1392,0.1393,0.1465,0.1466,0,0,0,0,0,0,0.1249,0.125,0.1276,0.1279,0.1276,0.1304,0.1307,0.1307,0.1333,0.1338,0.133,0.1332,0.1366,0.137,0.1373,0.1429,0.1392,0.1393,0.1394,0.1464,0.1465,0.1467,0,0,0,0,0,0,0.1248,0.125,0.1275,0.1269,0.1273,0.1303,0.1302,0.1307,0.1337,0.1342,0.1348,0.1358,0.1367,0.1371,0.1405,0.1429,0.1393,0.1394,0.1462,0.1464,0.1466,0.1498,0,0,0,0,0,0,0.1246,0.1249,0.1261,0.1268,0.1274,0.1299,0.1302,0.1307,0.1341,0.1345,0.1368,0.1372,0.1368,0.1403,0.1406,0.143,0.1395,0.1461,0.1463,0.1465,0.1495,0.1501,0.1506,0,0,0,0,0,0.1245,0.1252,0.1261,0.1265,0.1284,0.13,0.1304,0.1326,0.1342,0.1356,0.1376,0.1373,0.142,0.1405,0.1408,0.1432,0.1459,0.1462,0.1465,0.1493,0.15,0.1505,0,0,0,0,0,0,0.1245,0.1256,0.1266,0.1278,0.1297,0.1307,0.1328,0.1342,0.1368,0.1382,0.1385,0.139,0.1431,0.1428,0.1411,0.1462,0.1441,0.1444,0.1461,0.1468,0.1472,0.148,0.1396,0,0,0,0,0,0.1249,0.1259,0.1273,0.1288,0.1299,0.1319,0.1335,0.135,0.137,0.1383,0.14,0.142,0.1439,0.1452,0.1466,0.1489,0.1494,0.151,0.1515,0.1519,0.1528,0.156,0.1568,0.1476,0.1476,0.1476,0,0,0.1256,0.1264,0.1273,0.129,0.1307,0.1324,0.1331,0.1362,0.1383,0.1384,0.1426,0.1442,0.1451,0.148,0.1498,0.1484,0.1546,0.1522,0.1526,0.1533,0.1564,0.1572,0.158,0.1478,0.1478,0.1477,0,0,0.1266,0.1281,0.1292,0.1308,0.134,0.1349,0.1365,0.1391,0.1413,0.1449,0.1459,0.1492,0.1517,0.1528,0.1535,0.1578,0.1575,0.1587,0.1615,0.1645,0.1653,0.166,0.1667,0.1675,0.1585,0.1585,0.1585,0,0.128,0.1287,0.1301,0.1316,0.1335,0.1363,0.1382,0.1404,0.1441,0.1465,0.1471,0.1531,0.1539,0.1574,0.159,0.159,0.1601,0.1588,0.1651,0.1658,0.1665,0.1671,0.1679,0.1587,0.1587,0.1587,0.1586,0,0.1286,0.1307,0.1318,0.1342,0.1363,0.1388,0.1415,0.145,0.1483,0.1505,0.1564,0.158,0.1616,0.1624,0.162,0.1672,0.1663,0.1656,0.1633,0.1676,0.168,0.1687,0.159,0.1589,0.1589,0.1588,0,0,0.128,0.1316,0.1324,0.134,0.1381,0.1395,0.144,0.1481,0.1519,0.1563,0.161,0.1649,0.1673,0.1684,0.1691,0.1715,0.1763,0.1709,0.171,0.1712,0.1823,0.1692,0.1687,0.1772,0.1774,0.1775,0.1803,0,0.1288,0.1313,0.1333,0.1369,0.1383,0.1425,0.1459,0.1505,0.1551,0.1604,0.1642,0.1691,0.1691,0.1718,0.1746,0.1765,0.1787,0.1756,0.1786,0.1786,0.1661,0.1693,0.1781,0.1809,0.181,0.1811,0.1812,0,0.1283,0.1302,0.1335,0.1378,0.1391,0.1423,0.1489,0.1527,0.1603,0.1643,0.1705,0.1737,0.1792,0.1782,0.1843,0.1826,0.1834,0.1839,0.184,0.1713,0.1669,0.1761,0.1826,0.1824,0.1823,0.1823,0.1822,0,0.1256,0.1302,0.1329,0.1345,0.1399,0.1434,0.1474,0.1547,0.1589,0.1681,0.1721,0.179,0.1832,0.1865,0.1884,0.1875,0.1935,0.1918,0.1805,0.1795,0.189,0.1883,0.196,0.196,0.196,0.196,0.196,0,0.1237,0.1264,0.1325,0.1338,0.1382,0.1428,0.1491,0.1544,0.1625,0.1669,0.1747,0.1783,0.186,0.1897,0.1906,0.1873,0.1956,0.1815,0.1797,0.1901,0.1895,0.1895,0.1887,0.1961,0.1961,0.196,0.196,0,0.12,0.1241,0.1277,0.1344,0.137,0.1407,0.1495,0.1534,0.162,0.1682,0.1714,0.1801,0.184,0.1887,0.1935,0.1882,0.1874,0.1842,0.1947,0.1935,0.1708,0.1702,0.1713,0.1709,0.1705,0.1702,0.17,0,0.1179,0.1195,0.1276,0.1302,0.134,0.1402,0.1439,0.1529,0.1563,0.167,0.1683,0.1759,0.18,0.1759,0.1823,0.1822,0.1802,0.1782,0.1746,0.1703,0.1686,0.1685,0.1684,0.1694,0.1693,0.1692,0.1691,0,0.114,0.1186,0.1218,0.1269,0.1315,0.1352,0.1412,0.1424,0.1513,0.1605,0.1606,0.1618,0.1652,0.1675,0.1685,0.1685,0.1786,0.1744,0.1751,0.1716,0.1679,0.1666,0.1669,0.1678,0.168,0.1681,0.1682,0,0.1124,0.1137,0.1187,0.122,0.1273,0.1277,0.1317,0.1337,0.1376,0.1478,0.1477,0.1551,0.1632,0.1604,0.1618,0.1602,0.1575,0.1518,0.1537,0.1551,0.1485,0.1413,0.1318,0,0,0,0,0,0.1095,0.1096,0.1126,0.1148,0.1195,0.122,0.1281,0.1319,0.1399,0.136,0.141,0.1429,0.1432,0.1476,0.1427,0.1554,0.1591,0.149,0.1538,0.1608,0.1623,0.1559,0,0,0,0,0,0,0.1074,0.1104,0.1101,0.1079,0.1079,0.1111,0.1145,0.1199,0.1176,0.1265,0.1276,0.1342,0.1373,0.1446,0.1402,0.1414,0.1412,0.154,0.1536,0.16,0.1613,0.1625,0.1564,0,0,0,0,0]},{"header":{"parameterUnit":"m.s-1","parameterCategory":2,"la1":30.2991,"la2":30.254,"lo1":-89.0895,"lo2":-89.0444,"dy":0.0017,"dx":0.0017,"nx":28,"ny":28,"refTime":"2025-01-14T09:00:00:Z","depth":"4","parameterNumber":3,"parameterNumberName":"V-component_of_CURRENTS"},"data":[0,0,0,0,0,0,0,0,0,0,0,0,0,0,0,0,0,0,0,0,0,0,0,0,0,0,0,0,0,0,0,0,0,0,0,0,0,0,0,0,0,0,0,0,0,0,0,0,0,0,0,0,0,0,0,0,0,0,0.0304,0.0304,0,0.0301,0.0301,0.0301,0.0307,0.0307,0.0308,0.0308,0.0314,0.0314,0.0314,0,0,0,0,0,0,0,0,0,0,0,0,0,0.0291,0.0291,0.0304,0.0304,0.0304,0.0301,0.0301,0.0301,0.0307,0.0307,0.0308,0.0308,0.0314,0.0314,0.0314,0,0,0,0,0,0,0,0,0,0,0,0,0,0.0294,0.0292,0.0304,0.0307,0.0307,0.0301,0.0301,0.0301,0.0307,0.0307,0.0308,0.0308,0.0314,0.0314,0.0314,0.0309,0,0,0.0314,0.0314,0,0,0,0,0,0,0,0,0.0293,0.0294,0.0306,0.0306,0.0307,0.0304,0.0299,0.0304,0.0307,0.0307,0.0308,0.0308,0.0311,0.0312,0.0311,0.0309,0.031,0.0314,0.0314,0.0314,0.0314,0,0,0,0,0,0,0,0.0293,0.0294,0.0303,0.0306,0.0306,0.0299,0.03,0.03,0.0308,0.0307,0.0308,0.0307,0.0312,0.0311,0.0311,0.031,0.0314,0.0314,0.0314,0.0314,0.0312,0.0312,0,0,0,0,0,0,0.0294,0.0294,0.0303,0.0303,0.03,0.0299,0.03,0.0305,0.0308,0.0309,0.0306,0.0307,0.0311,0.0311,0.0311,0.032,0.0314,0.0314,0.0314,0.0312,0.0312,0.0312,0,0,0,0,0,0,0.0294,0.0295,0.0303,0.0298,0.0298,0.0299,0.0305,0.0305,0.0309,0.0307,0.0308,0.031,0.0311,0.0311,0.0316,0.032,0.0314,0.0314,0.0312,0.0312,0.0312,0.0328,0,0,0,0,0,0,0.0294,0.0295,0.0301,0.0298,0.0299,0.0303,0.0304,0.0305,0.0307,0.0308,0.0311,0.0311,0.0311,0.0316,0.0316,0.032,0.0314,0.0312,0.0312,0.0312,0.0327,0.0328,0.0329,0,0,0,0,0,0.0293,0.03,0.0301,0.0302,0.0306,0.0303,0.0303,0.0304,0.0307,0.0309,0.0312,0.0312,0.0315,0.0316,0.0316,0.032,0.0312,0.0312,0.0312,0.0327,0.0328,0.0329,0,0,0,0,0,0,0.0296,0.0301,0.0303,0.031,0.0308,0.0304,0.0306,0.0306,0.031,0.0313,0.0313,0.0314,0.0319,0.0315,0.0317,0.0317,0.0312,0.0312,0.0324,0.0325,0.0326,0.0329,0.0314,0,0,0,0,0,0.0299,0.0307,0.0305,0.0312,0.0312,0.031,0.0309,0.031,0.0311,0.0313,0.0314,0.0315,0.0316,0.0318,0.0317,0.0319,0.0306,0.032,0.0321,0.0322,0.0323,0.0304,0.0303,0.0311,0.0311,0.0311,0,0,0.03,0.0305,0.0309,0.0313,0.0313,0.0316,0.0311,0.0312,0.0316,0.0313,0.0321,0.0319,0.0317,0.032,0.0322,0.032,0.0311,0.0321,0.0322,0.0324,0.0304,0.0303,0.0302,0.0311,0.0311,0.0311,0,0,0.0306,0.0313,0.032,0.0321,0.0322,0.0321,0.0323,0.032,0.0323,0.0327,0.0326,0.0325,0.0327,0.0326,0.0326,0.0329,0.0316,0.0328,0.0337,0.0318,0.0318,0.0317,0.0295,0.0292,0.0329,0.0329,0.0329,0,0.0307,0.032,0.032,0.0326,0.0331,0.0326,0.0333,0.0332,0.0332,0.0337,0.0332,0.0333,0.0329,0.0334,0.0335,0.0332,0.0317,0.0336,0.032,0.0319,0.0318,0.0295,0.0292,0.033,0.033,0.033,0.033,0,0.0316,0.0328,0.0331,0.0342,0.0345,0.035,0.0349,0.0352,0.0353,0.0354,0.0357,0.0348,0.0349,0.0345,0.0342,0.0336,0.0327,0.0323,0.0318,0.0318,0.0294,0.029,0.0331,0.0331,0.0331,0.033,0,0,0.0318,0.0335,0.0338,0.035,0.0356,0.0361,0.0368,0.0375,0.0389,0.0377,0.0387,0.0379,0.0373,0.0371,0.0363,0.0344,0.0321,0.0332,0.0331,0.0313,0.0276,0.0262,0.0256,0.0315,0.0315,0.0314,0.0261,0,0.0327,0.0346,0.0352,0.0373,0.0383,0.0385,0.0397,0.0403,0.0407,0.0414,0.0396,0.0403,0.0384,0.0386,0.0363,0.0339,0.0313,0.0336,0.0277,0.0276,0.0265,0.0252,0.0313,0.0258,0.0257,0.0257,0.0256,0,0.0336,0.035,0.0371,0.0398,0.0404,0.0416,0.0439,0.045,0.0456,0.0459,0.0453,0.0441,0.042,0.0399,0.0343,0.0359,0.0317,0.0288,0.0285,0.0265,0.0255,0.0259,0.0249,0.025,0.025,0.0251,0.0251,0,0.0343,0.0367,0.0387,0.0395,0.0419,0.0433,0.045,0.0466,0.0487,0.0489,0.0499,0.0469,0.046,0.0403,0.0343,0.0343,0.0274,0.0266,0.0209,0.0207,0.023,0.0231,0.0214,0.0214,0.0215,0.0215,0.0215,0,0.0352,0.0371,0.0395,0.0406,0.044,0.0452,0.0492,0.0502,0.0525,0.0552,0.0526,0.053,0.0461,0.0415,0.035,0.027,0.0277,0.0206,0.0192,0.0237,0.024,0.0227,0.0229,0.0213,0.0213,0.0214,0.0214,0,0.0357,0.037,0.04,0.0431,0.0445,0.0471,0.0525,0.0555,0.057,0.06,0.0601,0.0577,0.0519,0.0441,0.0351,0.0286,0.0207,0.0174,0.0227,0.0218,0.0149,0.0152,0.0102,0.0101,0.01,0.01,0.0099,0,0.036,0.0374,0.0419,0.0443,0.046,0.0505,0.0539,0.0574,0.0606,0.0628,0.0639,0.0598,0.0566,0.0429,0.0345,0.0212,0.019,0.0139,0.0139,0.0145,0.0137,0.0142,0.0146,0.0098,0.0097,0.0097,0.0097,0,0.0368,0.0386,0.0411,0.046,0.05,0.0548,0.0597,0.0622,0.0659,0.0673,0.0663,0.0596,0.053,0.0428,0.0325,0.023,0.0168,0.013,0.0131,0.013,0.0139,0.0133,0.0138,0.0094,0.0095,0.0095,0.0095,0,0.0377,0.0395,0.0431,0.0473,0.0526,0.0571,0.0601,0.0634,0.0664,0.0681,0.0677,0.0608,0.0575,0.0437,0.0345,0.0249,0.0219,0.0173,0.0171,0.0173,0.0208,0.0231,0.0198,0,0,0,0,0,0.0383,0.0401,0.0441,0.0487,0.054,0.057,0.063,0.0656,0.0686,0.0679,0.0679,0.0615,0.0483,0.0438,0.0338,0.0323,0.0199,0.02,0.0144,0.0079,0.0082,0.011,0,0,0,0,0,0,0.0386,0.0421,0.0435,0.0489,0.0522,0.0581,0.0619,0.0643,0.0642,0.0657,0.0596,0.057,0.0452,0.0537,0.0329,0.0303,0.0247,0.0147,0.0144,0.0077,0.008,0.0082,0.0112,0,0,0,0,0]}]]